Regional Weather Roundup
Issued by NWS Newport/Morehead, NC

Current Version | Previous Version | Graphics & Text | Print | Product List | Glossary On
Versions: 1 2 3 4 5 6 7 8 9 10 11 12 13 14 15 16 17 18 19 20 21 22 23 24 25 26 27 28 29 30 31 32 33 34 35 36 37 38 39 40 41 42 43 44 45 46 47 48 49 50
000 ASUS42 KMHX 270913 RWRMHX WEATHER ROUNDUP FOR EASTERN NORTH CAROLINA NATIONAL WEATHER SERVICE NEWPORT/MOREHEAD CITY NC 500 AM EDT TUE SEP 27 2016 NOTE: "FAIR" INDICATES FEW OR NO CLOUDS BELOW 12,000 FEET WITH NO SIGNIFICANT WEATHER AND/OR OBSTRUCTIONS TO VISIBILITY NCZ015>017-031-032-045>047-102-103-271000- NORTH COAST CITY SKY/WX TMP DP RH WIND PRES REMARKS EDENTON CLOUDY 74 66 76 SW5 29.98F ELIZABETH CITY PTCLDY 70 66 87 CALM 29.98F KITTY HAWK CLOUDY 74 70 87 CALM 29.97F MANTEO CLOUDY 76 69 78 SW9 29.98F $$ NCZ045>047-081-094-103-104-271000- CENTRAL COAST CITY SKY/WX TMP DP RH WIND PRES REMARKS FRISCO CLOUDY 78 63 59 S14 29.98F $$ NCZ095-097-098-100-101-271000- SOUTHERN COAST CITY SKY/WX TMP DP RH WIND PRES REMARKS BEAUFORT CLOUDY 76 67 73 SE5 29.97S CEDAR ISLAND NOT AVBL JACKSONVILLE CLOUDY 69 67 93 CALM 29.96F PINEY ISLAND MOSUNNY N/A N/A N/A CALM 29.96F WILMINGTON CLOUDY 71 68 90 CALM 29.96F $$ NCZ011>013-027>030-043-044-078>080-089-090>093-098-271000- COASTAL PLAIN CITY SKY/WX TMP DP RH WIND PRES REMARKS AHOSKIE MOCLDY 68 67 96 S5 29.97F CLINTON CLOUDY 70 69 95 CALM 29.98F ELIZABETHTOWN CLOUDY 70 69 97 CALM 29.97F GOLDSBORO CLOUDY 70 70 100 CALM 29.96F GREENVILLE CLOUDY 70 70 100 CALM 29.99F HAVELOCK CLOUDY 71 66 84 CALM 29.98F KENANSVILLE CLOUDY 68 68 100 CALM 29.98F FOG KINSTON CLOUDY 69 68 96 CALM 29.98F NEW BERN CLOUDY 68 66 93 CALM 29.98F RICHLANDS CLOUDY 68 67 96 CALM 29.98S ROCKY MOUNT CLOUDY 69 68 96 CALM 29.97F WASHINGTON CLOUDY 68 67 95 CALM 29.98F WHITEVILLE NOT AVBL $$ AMZ130-135-150-152-154-156-158-170-250-252-270-ANZ085-086-088-633-658-670-271000- MARINE OBSERVATIONS STATION/POSITION TIME TEMP WIND PRES WAVE SWELL AIR SEA DIR/SP/G HT/PER HT/PER (UTC) (F) (DEG/KT/KT) (MB) (FT/S) (FT/S) CHESAPEAKE LIGHT NOT AVBL 64 E VA BEACH 0850 75 74 180/ 14/ 17 1014.8 3/ 5 2/ 8 DUCK 0848 76 76 180/ 13/ 15 1014.1 2 E DUCK 0841 76 N/A 3/13 2/13 OREGON INLET 0848 76 76 160/ 8/ 11 1015.1 13E OREGON INLT NOT AVBL HATTERAS CG 0848 78 78 150/ 10/ 13 1014.9 DIAMOND BUOY 0850 79 85 140/ 10/ 12 1015.1 4/ 9 3/ 9 CAPE LOOKOUT 0900 78 130/ 9/ 11 1014.4 BEAUFORT LAB 0848 78 76 150/ 6/ 8 1014.1 30 SE NEW RVR IN 0808 80 83 130/ 8/ 10 1014.5 30 SE NEW RVR IN 0855 83 N/A 3/ 6 27 SE WRIGHTSVLE 0808 80 81 100/ 8/ 12 1014.3 5 SE WRIGHTSVLE 0808 80 80 130/ 8/ 12 1015.4 225 S CAPE HAT 0850 82 83 120/ 17/ 19 1013.3 6/ 5 2/13 41 SE CHARLESTON 0850 80 82 70/ 6/ 8 1012.9 3/ 5 3/ 5 $$

USA.gov is the U.S. government's official web portal to all federal, state and local government web resources and services.